Location: Namasale
(1.5000°N, 32.6167°E)
Time: 07:17:48
(UTC+00:00)

ISS - Visible Passes

Search period start: 07 December 2021 00:00
Search period end: 17 December 2021 00:00
Orbit: 417 x 422 km, 51.6° (Epoch: 07 December)

Date Brightness Start Highest point End Pass type
(mag) Time Alt. Az. Time Alt. Az. Time Alt. Az.
10 Dec -2.8 17:18:26 10° NW 17:21:42 47° SW 17:21:48 47° SW visible
11 Dec -3.9 16:31:00 10° NNW 16:34:20 66° NE 16:37:40 10° SE visible
13 Dec -0.3 03:22:08 10° SSE 03:23:57 14° SE 03:25:47 10° E visible
13 Dec -0.7 16:33:36 10° WNW 16:36:11 20° SW 16:38:46 10° S visible
16 Dec -1.7 02:35:25 10° S 02:38:24 30° SE 02:41:24 10° ENE visible
